Wind_Speed
1 0 1 2 3 4 5 5 5 6 6 7 8 9 9 11 11 9 7 10 14 13 12 12 14 15 17 17 17 16 17 18 20 20 20 21 20 19 20 21 21 18 16 17 18 18 21 23 25 26 28 28 29 33 34 30 26 22 21 21 21 24 27 31 39 45 46 45 49 53 51 44 39 38 38 37 37 36 35 34 33 32 31 29 29 28
3 2 2 2 4 5 6 7 6 7 7 8 9 9 10 11 10 10 9 9 10 12 12 12 14 16 17 17 17 17 17 16 16 16 16 16 17 18 20 24 25 23 20 18 18 19 20 22 25 27 28 29 31 34 33 28 24 21 20 19 17 21 24 22 29 39 42 41 45 50 50 48 44 39 39 39 38 38 36 35 34 34 32 31 31 30
2 3 3 3 4 6 7 8 8 7 7 8 8 9 10 9 9 10 8 7 8 11 14 14 15 18 18 17 15 12 11 9 10 11 11 11 13 13 14 19 25 26 24 22 20 21 21 22 24 26 29 30 32 35 33 29 27 24 22 21 17 18 21 21 24 34 40 37 39 47 50 50 48 43 41 41 40 39 37 36 36 36 35 34 34 32
1 3 5 6 7 7 6 7 7 7 7 6 7 10 10 8 9 10 8 9 13 16 16 14 15 17 13 9 5 3 4 5 6 5 5 6 8 9 11 15 20 21 23 24 23 23 23 23 24 25 27 29 32 35 35 31 29 27 24 24 20 16 16 20 23 28 38 41 38 42 48 48 47 46 44 43 43 42 40 38 38 38 37 37 36 35
3 5 7 7 8 7 5 4 6 8 8 7 8 9 9 9 10 11 13 15 18 16 10 8 13 10 2 1 1 2 5 5 3 3 3 4 6 7 9 11 14 15 18 20 22 24 24 25 25 25 25 26 29 32 34 34 32 29 26 25 23 19 17 20 22 23 33 47 46 40 44 48 48 49 48 46 44 43 41 41 40 40 39 38 38 36
4 8 7 6 6 7 5 4 8 10 9 9 8 8 9 10 11 13 13 14 15 10 2 4 10 4 3 3 4 5 5 2 3 6 6 6 7 4 4 6 8 10 14 16 19 23 25 26 26 26 26 25 26 28 31 34 34 31 29 28 26 24 22 21 24 23 25 41 52 47 44 48 51 52 50 46 44 43 42 42 41 41 41 39 38 38
5 8 7 7 6 6 5 5 9 10 9 8 6 10 12 11 12 13 11 11 11 8 4 7 7 4 4 3 3 5 2 2 3 7 8 9 8 3 3 5 6 7 10 14 17 21 25 26 26 27 27 27 25 24 26 29 32 32 31 31 29 26 25 23 24 27 24 28 42 49 49 49 52 53 52 47 44 43 43 42 42 42 41 41 39 38
5 6 7 8 7 6 7 7 10 10 7 7 8 12 12 10 11 11 11 10 8 8 6 4 4 6 4 2 5 5 4 3 4 8 9 11 11 9 10 13 13 12 11 11 16 20 24 26 26 27 28 28 26 24 24 25 28 30 31 33 33 29 28 27 26 29 28 26 29 38 46 50 53 55 54 50 46 45 45 44 44 43 42 42 39 37
5 7 8 9 9 9 10 10 12 10 6 8 11 12 11 10 10 9 9 8 6 6 1 5 7 6 1 6 6 5 6 6 8 10 12 13 15 16 17 18 17 15 13 11 13 18 23 25 26 28 29 30 29 27 24 24 25 27 29 32 35 33 31 31 31 30 31 30 28 30 36 44 52 55 58 56 50 47 48 47 46 44 43 42 40 38
6 8 10 12 13 12 12 12 13 10 7 10 12 12 10 8 7 6 6 4 3 2 2 6 9 5 2 7 7 7 9 11 12 12 14 16 18 18 19 20 19 17 13 11 11 15 21 24 26 27 29 30 30 29 27 25 24 25 27 29 33 36 36 34 34 33 32 32 30 30 31 36 44 51 58 60 56 52 50 49 48 45 43 43 41 38
7 8 10 13 15 15 12 12 15 12 11 13 13 11 6 2 1 2 1 1 3 2 4 6 7 6 3 8 11 10 12 14 14 15 18 19 19 19 20 20 19 19 17 15 13 13 17 22 25 27 29 29 30 31 30 28 27 26 26 27 30 35 38 38 36 34 34 34 32 32 32 36 42 50 57 61 59 55 52 50 48 45 43 43 42 40
8 7 7 12 17 19 13 9 13 14 15 13 11 9 3 2 2 4 3 1 2 3 5 7 7 6 2 8 11 11 12 15 16 19 21 21 21 20 19 19 20 20 19 17 15 14 15 18 22 26 28 29 30 31 31 30 30 28 27 27 28 31 35 38 38 36 35 35 35 35 34 37 44 51 57 61 59 56 54 50 47 44 42 43 43 42
8 8 6 10 17 21 17 9 8 12 15 13 14 13 6 2 2 1 2 2 3 5 7 8 5 3 4 7 10 12 15 18 19 21 22 21 22 21 21 22 23 23 20 17 16 15 16 17 19 23 26 28 29 30 31 31 32 31 30 28 26 27 29 33 36 37 38 37 35 34 33 36 46 53 57 58 56 55 55 51 47 42 40 41 42 41
6 7 8 7 12 18 18 12 9 12 15 16 17 16 10 5 4 4 4 4 3 5 9 8 3 3 6 6 11 16 18 21 22 22 21 21 22 23 24 25 25 25 22 19 17 17 18 18 18 20 23 26 28 29 30 31 33 33 33 31 28 26 26 27 30 33 39 39 35 31 28 29 37 46 55 56 54 56 56 52 48 45 42 40 39 39
3 4 8 8 10 15 15 14 9 8 13 16 14 13 11 7 4 5 4 5 4 4 8 9 4 6 7 4 11 19 20 22 23 21 21 20 20 22 24 25 25 26 24 22 20 19 19 19 18 19 21 24 26 28 30 31 33 34 34 33 31 29 26 24 25 30 36 38 36 32 29 28 26 27 37 46 50 55 56 52 50 49 46 42 41 41
3 3 5 7 11 13 13 14 10 5 9 13 11 11 11 7 4 4 4 4 4 2 6 8 5 9 7 3 12 23 23 24 24 24 24 22 24 24 22 21 23 24 25 25 23 21 21 20 20 20 20 22 24 27 29 31 32 34 35 34 32 31 29 25 24 27 31 34 36 34 31 32 29 24 25 29 36 46 51 50 51 51 48 45 45 45
3 4 2 4 8 10 10 13 13 11 8 8 10 9 8 6 4 2 2 2 4 3 4 7 5 8 7 3 14 27 26 26 27 28 27 26 29 29 25 22 20 21 23 25 24 23 23 22 22 22 21 21 23 25 28 30 32 33 35 35 34 33 31 28 26 25 26 29 34 32 26 26 28 28 27 26 29 38 46 49 48 47 48 48 48 47
3 4 3 3 3 6 9 10 13 15 11 8 9 6 3 5 4 2 2 3 3 2 3 7 6 7 9 9 19 30 30 29 30 30 30 29 31 31 28 26 22 19 21 25 26 24 24 24 23 22 22 22 22 24 26 28 30 32 33 35 35 35 33 31 29 27 25 26 31 33 28 26 28 30 30 29 32 38 46 50 45 43 48 50 49 47
3 4 2 2 1 4 9 8 9 13 12 10 10 7 5 5 4 5 4 2 4 4 3 7 7 7 11 16 23 29 30 31 30 30 31 31 31 31 29 28 27 22 19 22 26 26 24 25 25 23 22 23 23 24 25 27 29 30 32 33 34 35 36 35 32 30 28 27 29 32 32 31 29 30 31 32 36 43 49 51 47 42 45 49 48 45
1 1 2 3 2 2 6 7 7 10 10 10 9 8 7 4 3 6 5 2 4 5 4 7 8 7 13 18 23 26 28 30 31 32 31 30 29 29 27 26 27 25 20 16 21 26 26 25 26 25 23 23 24 24 25 27 28 29 30 31 32 33 35 37 35 33 32 30 29 30 33 34 32 31 33 36 41 46 50 50 46 42 42 46 48 45
2 2 1 3 1 2 4 7 8 8 8 9 9 8 7 4 2 4 4 3 5 5 5 6 7 6 11 16 22 25 27 28 29 32 31 26 26 27 25 24 25 24 21 16 14 21 26 26 25 26 25 24 24 25 26 27 27 28 29 30 31 31 33 36 37 36 35 33 32 30 30 34 35 34 35 38 41 44 46 45 41 41 44 45 47 46
2 2 1 1 2 3 3 4 6 6 7 8 7 7 6 5 4 2 3 5 5 6 4 4 7 6 9 16 21 23 26 27 27 31 30 25 24 25 23 23 24 24 21 17 12 12 19 24 26 26 25 25 25 25 26 27 27 28 28 29 30 30 30 32 35 38 37 36 36 34 30 31 35 37 38 39 40 42 45 45 40 42 45 42 44 44
2 1 0 1 3 3 3 4 6 6 6 7 7 6 6 6 6 5 5 5 5 6 6 7 8 5 8 17 21 22 26 26 25 29 29 24 24 26 25 24 24 24 23 20 15 10 12 19 24 26 27 27 27 27 26 27 27 27 27 28 29 29 29 30 32 36 38 37 37 36 34 32 32 37 42 44 42 42 46 48 47 48 46 42 43 43
2 1 1 2 4 3 2 4 6 6 6 6 7 6 5 6 5 4 5 4 4 6 8 7 6 6 12 20 22 22 25 25 23 27 29 27 26 27 27 27 25 24 24 22 18 14 12 14 19 24 26 28 28 28 27 27 27 27 27 27 28 28 29 29 31 34 36 37 38 37 37 36 33 35 43 48 46 42 45 51 53 51 48 46 45 43
2 3 4 3 4 4 4 2 2 5 6 4 6 5 4 5 3 2 3 3 3 6 6 6 7 11 17 20 21 24 27 25 23 24 27 29 29 29 29 29 28 26 24 23 19 17 15 15 16 20 24 27 29 30 30 29 28 28 28 27 27 28 27 28 30 33 35 36 37 38 38 38 36 34 39 45 46 43 43 49 53 51 49 49 47 45
2 3 5 5 4 2 0 1 1 3 4 3 5 5 4 3 3 3 5 5 5 7 6 6 10 17 20 20 22 26 28 26 24 24 26 27 28 28 29 31 31 28 27 27 23 18 18 17 17 18 21 23 28 31 31 30 29 28 29 28 27 27 27 27 28 31 34 35 36 38 38 38 38 36 36 40 44 44 44 47 51 53 52 51 49 49
2 3 3 5 6 5 4 4 2 1 1 2 3 4 3 3 3 4 6 7 8 10 8 5 12 20 21 21 23 26 27 26 25 24 25 28 28 27 28 30 32 31 30 30 26 19 18 19 18 18 19 21 23 26 27 28 28 28 29 29 28 29 28 27 28 29 31 34 35 37 38 38 39 38 37 37 40 43 45 46 50 56 58 56 52 52
3 4 5 4 4 5 5 4 4 3 2 2 1 3 3 3 4 4 6 6 7 10 10 10 15 19 20 20 22 26 26 25 25 24 26 28 28 27 28 30 31 32 33 32 29 23 17 18 20 19 19 20 20 21 22 24 26 27 29 30 29 30 30 29 28 28 29 32 34 36 37 37 38 38 37 38 39 40 43 45 49 55 62 63 59 56
3 4 6 6 5 7 6 4 4 5 5 4 2 2 3 4 4 4 5 5 6 9 12 15 17 17 17 18 21 25 25 24 25 24 24 25 26 27 30 31 31 34 37 36 33 27 18 16 19 18 18 19 19 19 19 20 22 25 28 30 29 30 31 31 30 30 29 30 31 33 35 36 37 37 37 38 39 39 39 40 45 51 58 64 66 61
4 4 6 6 6 7 5 4 5 6 5 5 5 3 4 5 5 6 6 7 8 9 12 15 16 16 16 17 21 24 24 24 25 23 21 23 25 27 30 31 32 35 39 38 35 30 20 13 17 17 17 19 19 18 18 19 20 22 26 29 29 30 31 32 32 32 31 30 29 30 32 35 37 37 37 38 39 39 37 36 38 42 47 54 62 60
3 5 7 7 6 6 4 4 5 6 6 7 7 4 4 5 7 8 7 7 9 10 11 15 16 16 16 17 21 24 23 23 24 22 22 23 24 27 29 31 33 36 39 39 36 32 24 12 14 17 17 18 19 19 19 20 19 20 23 26 29 30 31 32 33 34 33 31 29 29 30 32 35 37 38 38 39 39 38 36 35 36 39 44 50 52
4 5 6 6 7 7 5 4 6 7 8 10 9 6 3 4 7 9 8 8 11 12 13 16 18 18 20 21 23 24 24 23 23 22 22 22 24 27 29 30 33 36 39 40 39 33 24 12 9 15 17 17 18 18 19 20 20 19 21 23 25 28 31 33 34 35 35 34 31 29 29 29 32 36 38 39 40 39 38 37 35 35 36 39 41 44
5 6 6 6 8 7 5 5 7 7 8 9 9 8 4 3 8 12 12 11 11 10 12 16 18 20 22 24 25 26 24 23 22 22 22 22 24 27 28 28 31 35 38 40 40 34 24 15 8 10 16 17 17 18 19 19 19 19 19 20 21 24 27 31 35 36 36 35 34 31 29 27 28 33 37 39 40 40 39 38 37 36 36 36 37 38
5 6 6 6 8 8 5 7 9 8 6 4 6 8 6 5 9 15 14 12 10 8 10 14 17 20 22 24 25 26 24 22 20 19 20 22 24 26 27 27 29 33 36 38 39 36 26 16 12 10 12 15 16 18 19 18 17 17 17 19 21 21 22 26 31 33 34 36 35 32 31 29 27 29 34 39 40 41 40 38 38 38 37 37 37 37
6 6 6 7 9 10 9 8 7 6 4 3 5 8 8 8 11 14 12 9 9 9 10 14 16 19 21 22 24 23 22 20 17 15 18 21 22 23 25 26 28 31 34 37 36 36 32 22 17 15 11 13 16 18 18 17 16 16 17 19 20 21 21 22 24 26 29 34 36 34 32 31 28 28 32 38 40 41 41 40 39 38 38 38 38 38
7 6 6 8 9 10 9 7 5 5 6 8 10 10 8 9 11 12 10 7 7 10 11 13 16 19 20 22 23 22 21 19 15 14 18 21 21 21 22 24 26 29 32 34 34 34 34 30 24 19 14 11 15 18 18 17 16 16 17 18 19 20 22 22 22 22 25 29 34 34 32 31 29 29 33 38 39 40 40 40 39 39 39 39 39 39
9 8 8 9 8 8 9 9 10 10 8 7 7 6 5 7 9 10 9 5 6 12 14 13 17 21 21 22 22 21 21 19 13 13 20 22 20 19 20 21 24 27 29 30 31 31 31 30 26 20 16 13 12 16 17 16 16 16 17 18 19 20 22 23 22 21 22 25 30 32 31 30 30 30 34 40 41 41 41 39 38 39 39 39 40 41
10 9 9 8 6 6 9 10 10 8 5 2 1 2 4 6 8 10 8 3 5 13 15 14 18 22 22 23 22 21 22 20 14 16 21 22 20 20 20 19 21 24 26 27 28 29 29 30 28 24 20 17 13 13 16 16 16 17 17 18 20 21 22 22 21 20 20 23 27 30 30 30 31 31 33 40 44 43 42 42 39 38 38 38 40 43
12 11 10 9 8 8 9 9 8 7 6 4 2 3 6 7 8 9 5 2 6 14 15 16 20 21 21 23 23 22 23 22 19 20 22 22 21 21 20 19 21 23 24 24 25 27 28 28 28 26 23 19 15 12 13 16 17 18 18 18 20 21 21 21 20 18 18 20 24 27 28 30 32 30 31 39 45 44 42 43 42 41 42 42 43 44
12 10 10 10 11 10 9 10 11 9 8 8 7 7 8 7 8 7 4 4 11 15 16 18 20 20 20 22 22 22 23 23 22 22 22 22 22 22 20 19 20 22 23 23 23 25 26 27 28 28 27 23 18 13 12 15 18 19 19 19 20 19 19 20 19 15 14 17 20 25 28 29 28 26 27 34 42 44 42 43 43 42 42 43 45 48
9 9 10 11 13 12 11 11 12 11 11 11 8 8 9 8 7 6 5 8 14 16 17 18 19 19 20 21 22 21 21 22 22 22 22 23 22 21 20 19 19 20 21 22 22 23 24 25 27 28 29 27 22 17 13 14 18 19 20 20 20 19 19 19 18 16 14 14 15 18 23 26 26 24 23 26 33 40 42 42 44 44 41 40 42 45
10 9 10 12 12 12 11 11 12 12 12 10 7 7 9 7 6 5 7 11 13 14 17 18 18 19 19 20 21 21 21 21 22 21 22 22 22 21 21 20 20 19 19 20 21 22 23 24 25 26 27 28 25 21 15 12 15 19 22 22 21 21 20 19 20 19 16 14 14 15 17 21 24 25 24 23 26 32 37 40 43 46 45 42 39 39
11 10 10 11 11 10 10 10 10 9 9 7 6 7 8 7 6 7 9 11 14 15 17 18 18 18 18 18 20 21 21 22 22 22 22 22 22 21 21 21 21 21 20 20 20 21 22 23 24 24 25 26 26 25 21 15 11 14 20 24 24 24 22 21 21 22 20 18 16 16 16 18 21 24 25 25 24 26 30 32 34 36 37 36 35 36
13 13 12 11 10 10 10 10 8 8 8 8 8 8 8 8 8 9 10 12 14 16 17 18 18 17 17 17 18 19 20 21 22 23 23 23 22 22 21 21 21 21 21 20 20 21 22 22 22 22 22 23 24 25 24 22 18 14 12 16 23 26 26 25 23 23 23 23 21 20 19 19 20 23 25 25 25 26 27 28 28 28 28 30 32 34
13 14 14 13 12 12 13 13 13 12 12 12 12 10 10 11 10 10 12 13 14 15 17 18 18 17 17 18 18 19 20 21 21 22 23 23 23 22 21 21 21 21 21 21 20 20 21 22 22 21 21 21 21 22 24 25 23 22 20 16 13 18 24 28 28 27 25 25 25 26 25 23 22 23 25 26 26 27 28 30 30 29 28 29 31 34
14 16 16 15 14 14 15 15 16 16 15 14 13 11 11 12 11 10 11 13 13 15 17 18 18 18 18 18 18 20 21 21 21 21 22 23 24 23 22 21 21 21 20 20 21 20 20 20 21 21 20 20 20 20 20 22 23 23 23 21 18 12 11 17 25 29 29 29 30 30 30 30 28 27 27 27 28 29 30 32 34 34 32 32 33 35
14 17 17 16 15 14 13 11 11 13 13 12 12 11 12 12 11 10 11 12 13 16 17 18 18 18 18 18 19 20 21 21 21 20 21 22 23 23 23 22 21 21 20 20 20 20 20 20 20 20 20 19 19 19 19 19 20 21 21 21 20 19 17 12 11 18 24 29 33 34 34 34 34 33 32 31 31 31 32 33 35 36 36 36 37 37
12 15 15 14 15 16 15 13 12 13 13 12 13 12 12 11 10 10 11 12 13 16 18 18 17 17 18 18 20 21 22 22 22 21 21 22 22 23 23 23 22 22 22 22 21 21 20 20 20 21 20 19 19 19 19 18 18 18 19 19 19 19 20 19 16 12 14 19 26 32 37 39 38 37 37 36 36 36 36 36 37 38 39 39 39 40
16 18 15 12 14 17 17 15 13 13 13 13 13 13 12 10 10 10 11 13 14 17 18 18 16 16 17 19 20 22 23 22 22 22 21 21 21 22 22 22 23 23 23 23 23 22 22 21 21 21 20 19 19 19 19 19 19 18 18 18 17 17 17 18 20 19 16 15 16 20 27 34 39 42 42 41 41 41 41 40 40 41 42 42 42 42
16 17 15 15 18 17 16 14 12 12 13 13 12 13 12 9 9 11 12 14 16 17 18 17 16 16 17 19 21 22 22 22 22 22 22 21 21 21 22 22 22 23 23 23 23 22 22 21 20 20 19 19 19 19 20 20 19 19 18 18 17 17 16 15 17 18 19 19 18 17 16 19 26 34 41 45 47 47 46 46 45 45 45 46 46 46
14 15 14 16 18 17 15 13 12 13 14 13 14 14 13 10 10 11 13 14 16 18 18 16 15 16 18 20 21 21 20 21 21 22 22 22 22 22 22 22 22 22 22 22 22 22 22 22 21 21 20 21 21 21 21 20 19 19 19 18 18 18 18 17 17 17 18 19 20 20 20 18 18 20 27 36 44 49 51 51 51 50 49 50 50 50
Wind_Direction
113 164 332 2 342 340 333 316 308 297 289 291 289 284 282 282 280 279 289 290 290 293 287 282 283 282 281 282 281 279 278 278 278 277 274 271 268 266 265 262 259 254 244 240 242 244 242 240 240 242 243 242 243 247 250 253 255 256 258 258 260 254 238 222 218 218 220 219 219 223 228 230 230 226 224 223 222 220 219 221 223 225 226 227 230 232
85 83 19 5 327 324 325 316 313 302 291 286 281 282 282 280 279 281 285 286 296 300 291 290 290 286 285 285 283 280 279 277 276 276 272 268 264 262 262 260 258 255 248 241 243 246 246 244 241 240 241 241 241 244 246 248 250 252 254 251 245 248 248 235 217 215 220 221 219 222 227 232 233 230 227 225 225 223 221 222 224 227 228 228 230 232
109 60 356 321 321 331 324 317 321 311 292 280 278 283 282 290 299 288 282 285 301 304 296 296 293 291 290 285 283 277 269 273 275 271 263 258 256 257 259 256 254 254 250 245 243 245 247 248 247 243 242 242 242 246 246 244 245 248 251 250 244 245 246 241 228 218 219 221 221 220 223 230 233 231 229 226 225 226 223 223 225 228 229 230 232 233
119 25 331 314 328 339 327 317 325 312 292 279 284 291 288 304 316 299 293 296 302 299 289 291 295 293 290 280 273 258 266 298 298 283 267 259 257 252 251 253 253 252 249 245 241 243 246 248 249 248 245 244 245 247 247 245 246 248 251 254 252 247 239 243 247 233 223 222 221 221 224 230 234 231 229 227 224 225 224 223 225 227 229 231 233 235
36 332 316 328 335 342 340 323 332 320 299 287 287 294 297 300 304 299 297 302 306 297 274 290 302 293 261 208 247 306 317 332 8 24 348 314 298 274 258 256 255 253 249 243 238 238 242 244 246 248 247 246 246 249 248 246 247 248 249 252 252 248 239 237 244 243 232 225 221 223 228 231 233 231 229 228 225 224 224 224 225 228 230 232 234 237
0 326 331 1 354 356 3 328 329 325 307 299 279 279 303 302 296 296 297 303 306 294 224 333 312 277 178 247 292 320 325 354 70 34 17 5 348 314 253 246 248 252 248 240 235 234 236 240 244 246 247 247 247 249 249 245 245 246 246 246 247 246 240 236 238 242 240 230 224 226 230 231 232 232 232 231 227 225 225 226 227 229 232 235 237 239
6 354 14 23 12 1 1 335 325 323 313 310 272 274 303 304 290 292 292 290 293 288 301 331 318 281 247 257 326 349 5 120 69 23 18 14 4 332 266 285 279 268 253 240 235 233 233 235 239 243 245 246 245 248 251 247 243 243 242 241 240 240 238 237 239 241 241 234 228 229 233 235 233 233 235 234 231 227 227 228 228 230 233 236 239 241
37 30 38 27 22 10 4 347 330 334 326 309 297 296 305 299 286 288 283 275 281 291 299 346 337 290 280 44 39 33 77 89 12 0 1 356 343 313 303 313 310 300 286 256 239 236 234 232 234 237 240 243 242 244 249 250 246 242 239 238 237 236 237 237 238 240 239 235 231 231 235 237 233 233 236 235 233 229 228 228 228 229 231 233 237 240
63 54 51 39 38 24 12 360 346 355 338 305 318 324 310 292 287 282 276 274 282 286 298 39 347 294 274 60 47 59 60 16 345 344 344 337 326 313 308 312 313 307 300 279 252 242 238 235 233 234 235 238 239 240 243 246 248 245 240 237 235 234 234 236 236 237 238 236 236 236 237 236 235 238 238 233 231 230 228 228 228 228 229 231 235 238
75 64 60 54 46 27 18 8 360 5 345 325 336 337 314 295 293 277 278 279 259 258 61 26 352 330 48 58 45 40 19 355 345 343 337 326 317 310 305 305 306 300 292 282 269 252 244 239 237 236 235 235 236 237 238 239 244 247 244 239 236 233 231 234 236 236 237 237 239 242 243 243 241 240 234 228 227 227 228 229 229 228 227 229 233 236
60 61 61 56 43 30 24 356 351 7 2 347 341 334 317 294 279 225 263 264 204 132 46 15 354 332 11 57 42 26 11 356 347 343 336 326 317 307 301 301 300 295 286 278 272 260 251 244 240 238 238 238 236 235 235 235 238 242 246 244 240 236 232 232 235 236 237 239 243 244 242 244 243 236 228 223 223 225 227 228 230 230 226 227 232 234
58 58 60 50 37 35 37 356 351 13 7 355 351 339 308 178 176 180 163 238 228 81 28 351 337 313 343 58 32 14 5 354 346 339 333 327 321 312 303 301 299 296 291 282 270 257 249 246 243 240 239 240 239 237 234 233 235 237 241 245 244 242 237 235 235 234 236 240 245 246 241 237 236 231 224 221 221 223 225 227 230 232 227 226 231 233
76 56 44 32 24 31 41 30 21 22 9 13 19 4 351 66 82 106 84 55 48 54 20 350 343 2 53 48 17 5 357 348 341 335 330 324 321 314 304 300 296 295 294 287 276 260 247 241 242 242 240 240 240 240 239 235 234 234 237 241 243 243 241 239 237 235 237 239 242 247 246 236 230 227 222 219 222 223 224 225 226 230 228 225 229 232
118 68 50 36 21 30 40 39 39 30 20 29 31 22 19 30 47 38 33 48 61 50 21 6 10 29 28 37 18 3 351 344 339 334 328 320 316 310 302 297 292 289 288 283 276 267 257 245 238 239 241 241 240 240 241 240 238 236 236 237 239 242 242 241 240 237 237 238 238 241 242 235 229 226 220 218 222 223 224 226 226 230 231 227 227 229
155 86 55 57 39 35 41 42 46 43 34 36 36 36 39 35 25 24 26 27 23 26 22 26 41 3 3 50 22 1 349 344 338 332 328 320 317 311 301 295 286 280 279 277 271 265 262 255 244 237 236 239 242 240 239 241 241 240 240 238 237 238 240 242 239 237 238 236 232 229 230 233 237 231 219 218 222 223 224 228 230 232 232 228 226 227
108 92 52 52 42 38 45 45 49 66 43 36 40 43 47 49 23 10 41 25 339 313 28 29 22 2 9 65 8 356 350 346 339 336 338 336 335 329 315 303 285 270 267 266 264 260 258 257 253 244 236 234 239 241 241 241 241 241 243 244 241 238 238 240 240 239 238 233 227 227 233 242 249 250 237 225 223 222 222 226 229 231 229 225 225 225
122 99 52 41 35 32 40 40 42 56 51 29 38 48 46 47 44 20 51 3 294 241 32 15 353 359 4 337 348 353 354 353 348 345 344 343 343 340 334 324 302 274 261 255 254 253 250 252 255 251 244 238 236 239 241 242 242 241 242 245 245 242 239 238 238 240 239 231 225 222 228 236 238 238 239 236 233 226 222 223 224 226 224 220 220 223
151 121 82 75 45 22 29 32 32 43 57 55 45 44 22 32 49 28 351 359 7 28 26 12 1 359 356 340 346 352 354 355 354 350 345 342 343 343 340 337 325 294 264 249 245 246 244 246 251 252 249 245 239 237 239 242 243 243 243 244 245 245 243 240 237 237 237 234 228 221 218 221 222 224 228 234 236 229 221 219 219 222 220 213 214 219
155 145 114 91 116 40 35 35 23 23 42 62 52 37 31 38 36 19 7 347 2 357 3 12 4 6 9 357 350 351 352 353 353 352 347 342 342 344 341 340 339 326 293 257 241 239 239 241 243 247 249 247 244 239 237 240 242 243 244 244 245 244 244 243 240 236 235 235 233 227 221 217 218 224 226 230 233 227 219 217 216 218 217 211 210 213
114 147 137 102 124 85 44 41 37 21 24 45 47 37 40 46 30 33 37 337 326 340 355 358 353 18 22 0 348 349 352 352 351 351 350 344 344 349 347 342 341 339 327 291 250 235 233 236 239 242 243 244 245 241 238 239 240 242 243 244 246 245 243 243 243 240 236 235 236 234 229 222 219 224 228 229 231 226 220 221 220 215 212 210 209 213
66 346 98 114 124 84 54 43 45 38 26 33 38 30 29 34 37 59 60 15 346 350 357 346 336 10 20 356 347 350 352 352 350 351 351 346 345 352 351 345 341 340 338 324 278 243 233 232 235 239 240 241 243 243 241 239 239 241 242 242 244 245 244 243 243 242 240 236 236 236 235 229 223 224 229 231 232 230 228 232 228 214 212 211 209 216
67 354 22 126 99 79 84 56 45 48 44 42 44 35 32 35 25 33 61 40 7 350 348 323 315 342 5 351 349 352 351 349 350 353 355 352 352 358 359 356 353 348 343 337 318 268 242 235 234 237 239 240 241 244 244 242 240 241 241 241 242 242 244 244 243 243 242 239 237 235 235 234 228 226 232 235 235 234 231 231 228 220 218 214 210 218
72 91 348 165 111 104 116 70 49 53 52 45 46 43 36 40 31 15 15 9 350 347 341 315 315 350 5 351 352 353 349 349 353 357 0 1 3 6 5 5 2 356 347 338 327 304 261 243 238 237 238 238 239 242 244 245 244 242 241 242 241 241 241 242 243 243 244 243 240 236 234 233 231 229 232 236 235 233 231 226 224 225 223 216 213 221
35 34 281 185 142 137 136 79 51 51 52 39 35 36 34 40 41 28 15 348 333 357 348 321 324 353 350 349 352 348 346 351 356 357 0 2 4 4 4 2 359 355 350 337 322 308 286 258 246 242 240 239 239 239 241 244 246 245 243 241 242 243 241 240 241 243 244 245 243 240 237 234 233 230 233 237 234 232 232 226 221 222 219 214 216 225
26 342 310 247 186 183 176 148 62 52 58 47 33 30 33 37 29 13 6 333 344 5 338 309 319 332 337 345 348 344 346 353 356 355 358 0 1 2 2 0 356 353 349 337 319 302 289 273 259 249 245 243 241 238 238 239 242 245 245 241 241 243 243 240 240 241 243 245 245 244 241 238 236 232 234 240 238 234 235 229 221 219 216 213 219 231
351 320 319 313 298 279 300 22 27 49 52 48 38 30 25 21 3 336 314 304 339 345 309 299 320 323 331 343 344 344 348 351 352 353 353 355 358 359 358 357 357 356 351 341 329 306 286 276 266 257 251 247 243 241 239 237 237 240 243 243 240 242 244 242 240 239 241 244 245 245 243 242 240 234 233 240 242 239 238 232 222 218 217 217 221 231
317 309 299 309 323 331 346 341 316 342 23 38 34 29 16 344 338 336 314 309 334 327 305 328 334 322 327 340 343 343 345 348 351 349 346 350 355 355 352 352 355 355 350 343 337 321 291 273 266 259 253 250 247 246 245 241 237 235 240 244 242 242 244 243 242 240 239 241 244 245 244 242 241 238 233 236 241 241 240 237 227 218 218 220 224 230
312 303 283 283 299 301 304 295 274 275 274 250 344 9 358 329 324 329 324 325 333 321 317 337 334 322 325 336 341 340 340 346 351 346 343 350 353 350 348 348 350 351 350 347 343 334 306 273 264 259 251 248 247 246 249 249 243 236 238 243 244 243 244 244 243 242 240 239 241 244 246 244 242 240 235 235 239 239 238 239 235 228 222 221 224 230
292 282 274 277 284 283 284 273 255 269 273 249 253 328 342 335 321 313 316 317 318 315 315 323 325 321 325 333 337 337 338 343 349 345 342 348 350 348 347 346 347 349 349 349 346 339 319 273 259 257 250 246 246 245 248 252 248 241 240 243 245 245 245 244 244 244 242 240 240 241 245 245 244 241 237 235 237 239 238 237 238 239 233 224 223 228
289 273 264 274 293 288 271 251 248 260 264 242 230 272 330 337 329 321 314 305 306 305 305 316 322 320 325 331 333 335 337 340 344 342 339 344 348 348 346 345 348 349 349 351 350 345 331 284 254 252 249 245 244 244 247 250 249 244 243 245 246 246 246 244 244 244 243 242 241 240 241 244 244 241 238 237 236 237 240 238 237 241 239 230 227 230
282 273 270 279 296 283 248 242 259 259 254 241 227 242 315 339 342 337 326 310 305 301 306 322 325 322 326 331 331 333 336 340 343 342 341 344 347 347 347 346 347 349 352 355 356 350 342 309 251 245 247 245 244 245 248 250 251 248 245 246 248 248 247 245 244 245 244 242 242 242 241 241 242 241 237 236 236 235 238 239 238 238 237 234 232 233
263 272 285 289 291 278 244 254 282 269 251 242 231 232 284 354 0 351 338 318 311 313 324 333 330 326 329 330 330 333 339 344 345 343 343 344 344 347 349 346 346 349 354 360 1 355 350 338 265 238 238 244 246 248 252 254 256 256 252 250 250 251 249 246 244 244 244 243 243 244 244 242 242 241 237 234 235 235 235 237 237 236 236 236 234 233
259 270 287 291 296 290 253 266 295 279 253 238 220 218 247 342 1 355 343 324 316 319 327 329 326 326 329 330 333 338 345 350 348 344 345 344 344 346 346 345 348 351 355 2 5 3 3 2 333 250 232 236 243 247 252 255 258 261 261 258 255 254 254 250 245 243 243 244 244 245 247 247 245 242 237 233 233 233 234 234 235 236 238 239 238 236
256 273 287 288 294 296 281 286 291 274 264 250 209 218 250 305 343 347 338 326 327 326 321 324 325 325 329 331 335 341 349 352 347 345 349 344 341 343 344 346 349 350 356 4 6 8 14 12 347 308 249 232 235 242 247 254 260 264 266 264 260 259 260 257 250 245 243 243 244 245 247 249 249 244 236 232 231 231 232 234 235 237 238 239 241 240
252 269 283 285 289 293 296 295 281 263 277 292 255 253 271 295 324 338 336 331 342 341 331 329 328 327 330 335 340 345 350 352 348 348 351 343 337 342 346 348 349 348 356 5 7 10 19 20 0 339 299 247 234 236 241 250 260 265 265 266 266 265 266 267 261 252 246 244 243 243 243 243 246 244 235 230 230 229 230 232 235 237 237 238 239 239
255 264 270 278 288 293 294 286 275 287 302 295 284 280 286 302 321 338 341 333 343 349 342 333 332 334 338 343 347 347 351 1 2 346 340 337 337 346 352 351 349 347 353 4 7 9 16 22 20 7 339 286 246 237 241 248 253 256 259 264 269 270 270 273 270 258 249 245 244 245 242 239 242 243 233 227 228 230 230 230 231 234 235 236 236 236
260 268 268 274 283 291 296 293 286 287 288 283 279 279 292 310 320 333 333 306 314 340 344 339 340 345 347 349 351 348 354 10 11 332 332 339 343 353 0 353 348 346 349 359 7 9 10 14 15 7 346 314 269 244 243 246 247 248 253 260 267 270 271 273 272 263 253 245 243 246 247 245 248 248 237 226 222 222 223 224 228 232 234 233 233 232
255 263 267 273 278 283 296 298 290 286 284 255 220 259 296 311 319 329 332 285 288 327 339 343 347 351 352 351 352 353 357 6 359 332 335 344 347 356 5 357 346 344 346 354 3 8 10 10 6 360 348 329 301 263 247 245 246 248 252 259 265 267 270 273 272 268 260 247 241 244 247 247 251 254 245 233 225 220 217 216 218 224 229 230 230 229
249 256 261 265 269 271 278 282 278 282 287 275 268 286 294 310 326 328 322 269 307 326 337 346 349 353 354 350 352 357 358 356 352 343 341 345 351 358 1 354 346 345 347 351 357 2 8 11 9 5 356 342 323 292 259 248 248 250 253 260 265 267 271 272 268 265 260 249 242 241 244 247 251 254 248 237 231 228 226 221 218 219 221 225 227 226
248 250 251 257 264 261 260 269 271 267 267 271 276 280 284 305 324 316 300 315 326 331 338 345 349 353 355 352 354 359 356 351 350 348 344 346 353 359 359 356 352 349 347 349 353 356 0 6 11 12 8 360 347 326 288 259 251 252 255 260 263 267 271 270 261 254 253 251 244 241 242 246 251 254 251 240 232 231 233 234 234 231 224 221 224 224
246 245 242 250 261 258 251 260 270 270 269 272 270 264 274 296 311 304 308 319 321 328 337 343 347 353 355 354 354 357 355 351 350 350 347 347 352 356 357 359 359 355 351 348 349 351 353 358 7 13 15 13 4 349 320 281 260 254 256 260 263 264 268 270 263 254 249 251 252 248 244 244 245 248 250 244 238 236 238 240 245 247 240 233 229 226
246 245 243 245 253 258 253 254 268 277 272 266 257 254 266 285 299 304 314 314 315 326 336 339 344 351 354 355 354 354 356 354 353 353 351 349 351 353 353 356 358 359 357 352 351 352 352 355 0 7 14 17 15 8 353 316 280 262 256 259 263 264 266 269 269 264 255 251 255 258 251 245 243 243 242 240 239 240 241 244 248 247 244 243 240 234
245 241 249 250 245 247 249 251 266 274 259 249 260 263 255 258 279 299 310 313 317 326 333 336 342 347 350 353 353 353 355 356 356 356 353 350 352 353 351 350 353 357 359 358 356 356 357 357 357 360 6 14 17 17 14 3 330 287 266 259 260 263 265 266 268 267 261 255 253 256 256 250 244 243 242 239 238 238 240 245 249 244 237 240 246 245
241 238 248 252 240 236 241 245 251 248 240 250 269 271 264 267 283 300 308 312 319 326 330 334 338 341 344 347 348 350 353 356 356 354 352 350 351 353 351 349 349 351 354 357 358 357 358 0 0 359 1 7 14 17 18 20 14 355 319 283 266 261 261 263 265 265 262 259 255 253 253 252 247 243 240 239 239 239 237 239 247 247 239 238 242 245
235 234 241 243 238 242 249 248 248 252 262 273 274 272 277 280 281 293 305 310 317 323 325 328 332 336 339 341 343 345 348 353 353 352 351 350 350 351 351 349 348 348 349 352 355 356 357 359 1 2 1 2 8 13 16 18 18 13 8 352 310 274 262 260 260 261 261 260 258 255 252 251 249 245 241 238 237 237 234 232 237 243 242 238 237 240
240 242 245 247 249 257 262 259 257 261 267 272 268 264 273 279 279 288 301 309 315 317 319 322 327 332 336 337 339 342 345 348 349 348 348 349 349 349 350 350 349 349 349 349 349 351 354 356 358 1 2 2 5 8 11 14 15 12 9 10 8 351 305 272 262 260 261 260 259 258 255 252 251 247 244 242 239 236 234 232 233 236 237 236 235 236
253 252 250 250 253 259 264 267 269 267 265 266 267 265 267 273 279 288 296 304 310 313 316 320 323 329 336 337 338 341 343 345 347 348 348 348 348 347 348 349 350 350 351 351 347 346 348 350 352 354 357 0 4 7 7 8 12 10 5 5 11 14 7 346 295 270 266 263 261 260 257 255 253 250 247 245 243 239 237 235 234 234 235 235 234 234
260 259 254 251 252 255 260 264 268 269 267 266 268 269 268 271 278 284 290 299 306 310 313 317 322 330 336 338 339 341 342 343 345 348 349 348 347 346 346 347 348 350 352 352 350 347 346 347 346 346 348 351 354 360 3 4 6 8 6 3 4 6 6 3 354 329 297 280 272 266 262 259 256 253 251 248 246 243 241 238 235 233 233 233 233 233
247 256 260 258 256 256 260 263 264 268 271 268 264 263 264 270 278 280 284 295 302 307 312 318 324 331 335 338 340 342 342 343 345 348 350 349 348 346 346 346 347 349 350 350 349 348 348 348 347 344 342 344 346 349 353 356 357 359 1 2 2 0 359 358 355 350 339 325 305 286 273 266 262 258 255 252 249 246 244 242 239 235 232 231 231 230
250 259 264 261 259 260 262 263 261 259 259 260 262 260 256 263 276 278 281 291 299 304 312 320 325 329 333 337 341 342 342 344 346 347 348 350 349 347 346 347 347 347 347 347 346 346 347 348 348 346 344 345 347 348 348 348 348 348 350 354 356 355 352 349 346 346 345 344 340 329 311 292 277 267 261 256 253 249 246 244 242 240 236 233 231 230
257 259 255 249 253 259 260 258 256 254 251 252 257 260 259 265 278 278 279 287 295 302 310 320 326 328 331 337 341 342 343 345 347 347 349 350 350 348 348 348 348 347 346 345 345 346 346 347 348 348 349 349 350 351 349 346 343 342 342 344 347 348 347 344 340 337 337 339 342 340 335 329 317 297 278 266 259 254 250 246 243 242 240 238 234 232
Height
3121 3122 3123 3122 3122 3122 3122 3121 3121 3121 3121 3121 3120 3120 3119 3118 3117 3116 3117 3115 3114 3115 3116 3116 3115 3115 3114 3114 3114 3114 3114 3113 3112 3112 3112 3112 3113 3113 3113 3113 3113 3114 3115 3115 3114 3114 3114 3115 3116 3117 3117 3119 3119 3117 3117 3120 3121 3122 3123 3124 3127 3129 3131 3131 3130 3135 3140 3143 3146 3149 3152 3156 3159 3162 3164 3166 3167 3169 3170 3172 3174 3176 3178 3179 3181 3183
3121 3122 3122 3122 3121 3121 3120 3120 3120 3120 3119 3120 3119 3118 3117 3116 3115 3115 3115 3114 3113 3114 3114 3114 3113 3113 3112 3112 3111 3111 3111 3111 3110 3110 3110 3110 3110 3110 3110 3110 3110 3111 3113 3113 3113 3113 3113 3113 3114 3115 3115 3116 3115 3114 3116 3119 3120 3121 3121 3123 3124 3125 3129 3131 3130 3132 3137 3140 3144 3148 3151 3154 3156 3159 3161 3163 3165 3166 3168 3170 3172 3174 3175 3177 3179 3180
3121 3122 3121 3120 3120 3120 3120 3119 3118 3118 3118 3118 3118 3117 3115 3114 3113 3113 3113 3113 3112 3112 3112 3112 3111 3110 3109 3109 3108 3108 3108 3108 3108 3107 3107 3107 3107 3107 3107 3107 3107 3108 3109 3111 3112 3111 3111 3111 3111 3112 3112 3113 3113 3112 3114 3117 3118 3119 3120 3121 3123 3123 3125 3129 3132 3132 3134 3137 3141 3145 3148 3150 3152 3154 3157 3159 3161 3163 3165 3168 3169 3171 3173 3174 3176 3178
3121 3121 3120 3119 3119 3119 3119 3118 3118 3118 3117 3117 3117 3115 3114 3113 3113 3112 3112 3111 3111 3110 3109 3109 3108 3107 3106 3106 3106 3106 3106 3106 3106 3105 3105 3105 3104 3105 3104 3104 3104 3105 3106 3108 3109 3109 3109 3109 3109 3109 3110 3111 3111 3110 3112 3115 3115 3117 3118 3119 3120 3121 3122 3125 3129 3131 3133 3135 3137 3141 3144 3146 3147 3150 3152 3154 3156 3159 3162 3164 3165 3167 3169 3171 3173 3175
3120 3120 3119 3119 3118 3118 3119 3118 3117 3117 3116 3116 3115 3114 3113 3113 3112 3112 3110 3109 3108 3107 3106 3107 3106 3104 3104 3105 3105 3105 3105 3105 3104 3105 3105 3104 3103 3103 3102 3102 3102 3102 3102 3104 3105 3106 3106 3106 3106 3107 3108 3108 3108 3108 3109 3112 3113 3114 3116 3116 3117 3119 3120 3123 3127 3129 3131 3133 3134 3136 3139 3141 3143 3145 3147 3149 3152 3156 3159 3162 3163 3165 3166 3168 3171 3173
3120 3119 3118 3118 3118 3118 3118 3118 3116 3115 3115 3114 3113 3112 3112 3111 3110 3110 3109 3108 3107 3104 3104 3106 3104 3102 3103 3104 3104 3104 3104 3104 3104 3104 3104 3104 3102 3101 3101 3100 3100 3100 3100 3101 3101 3101 3102 3103 3104 3105 3105 3106 3106 3106 3106 3108 3110 3112 3114 3114 3115 3115 3117 3120 3124 3126 3127 3129 3131 3133 3135 3137 3139 3141 3144 3147 3151 3155 3158 3160 3161 3162 3164 3166 3168 3170
3120 3119 3118 3118 3118 3118 3118 3117 3115 3114 3114 3113 3110 3110 3109 3109 3108 3108 3108 3107 3105 3103 3103 3104 3103 3101 3101 3102 3103 3103 3103 3104 3104 3104 3103 3103 3101 3099 3099 3098 3098 3098 3098 3098 3098 3098 3099 3100 3101 3102 3103 3104 3104 3104 3104 3105 3107 3109 3111 3112 3113 3113 3114 3116 3120 3122 3123 3126 3129 3131 3133 3134 3136 3139 3142 3146 3150 3153 3155 3157 3159 3160 3162 3164 3166 3167
3120 3119 3119 3118 3118 3118 3117 3116 3114 3112 3112 3111 3109 3108 3107 3107 3106 3106 3105 3105 3104 3103 3102 3103 3104 3101 3099 3100 3102 3102 3103 3103 3104 3103 3103 3101 3100 3098 3098 3097 3097 3096 3096 3096 3096 3096 3096 3097 3098 3099 3100 3100 3102 3102 3102 3103 3104 3106 3107 3109 3110 3111 3111 3113 3115 3117 3119 3122 3125 3129 3131 3132 3134 3136 3139 3144 3148 3150 3152 3153 3154 3156 3158 3161 3163 3165
3119 3119 3118 3118 3118 3117 3116 3115 3112 3111 3111 3110 3107 3106 3105 3105 3105 3104 3103 3103 3103 3102 3102 3103 3103 3100 3097 3100 3102 3103 3103 3103 3103 3103 3101 3100 3099 3097 3096 3096 3095 3095 3095 3095 3094 3094 3094 3094 3095 3095 3096 3097 3099 3100 3100 3101 3102 3103 3104 3105 3107 3108 3109 3110 3112 3113 3115 3118 3120 3122 3126 3129 3131 3133 3136 3140 3144 3145 3147 3148 3150 3152 3155 3157 3160 3161
3118 3118 3117 3117 3117 3116 3115 3113 3111 3110 3110 3108 3106 3105 3104 3103 3103 3103 3102 3102 3102 3101 3101 3103 3103 3099 3098 3101 3103 3103 3104 3103 3103 3102 3100 3098 3097 3096 3095 3094 3094 3093 3093 3093 3092 3092 3092 3092 3092 3092 3093 3094 3095 3097 3098 3099 3100 3101 3102 3103 3103 3104 3106 3107 3108 3110 3111 3113 3115 3116 3119 3123 3126 3128 3130 3135 3138 3140 3141 3144 3146 3149 3151 3154 3157 3158
3118 3118 3117 3117 3116 3115 3114 3112 3111 3109 3108 3107 3106 3104 3103 3103 3102 3102 3102 3101 3100 3100 3102 3103 3104 3102 3100 3102 3104 3104 3104 3103 3102 3101 3099 3097 3095 3094 3093 3092 3091 3091 3090 3090 3090 3090 3090 3090 3090 3090 3090 3091 3092 3093 3095 3096 3097 3098 3099 3100 3101 3101 3103 3104 3105 3107 3108 3109 3111 3112 3114 3116 3119 3122 3125 3128 3132 3135 3137 3140 3143 3146 3149 3151 3153 3155
3119 3118 3118 3117 3116 3114 3114 3113 3111 3109 3108 3107 3106 3104 3102 3100 3100 3100 3100 3099 3098 3100 3103 3104 3103 3102 3102 3104 3105 3105 3105 3103 3102 3100 3097 3095 3093 3091 3090 3089 3089 3088 3087 3087 3087 3088 3088 3087 3087 3088 3088 3088 3089 3090 3091 3093 3094 3095 3096 3097 3098 3099 3100 3101 3103 3104 3105 3106 3107 3108 3109 3111 3113 3117 3120 3124 3127 3130 3133 3136 3140 3143 3146 3148 3149 3152
3119 3119 3118 3117 3116 3114 3113 3114 3113 3111 3110 3108 3105 3103 3099 3097 3099 3099 3097 3097 3098 3101 3104 3104 3103 3103 3103 3105 3106 3105 3104 3103 3101 3099 3096 3093 3091 3089 3088 3087 3086 3086 3085 3085 3084 3084 3085 3085 3085 3085 3085 3086 3086 3087 3088 3089 3091 3092 3093 3094 3096 3096 3097 3098 3099 3101 3102 3102 3104 3105 3106 3106 3108 3111 3115 3119 3124 3127 3130 3133 3136 3140 3142 3144 3146 3149
3119 3119 3118 3118 3117 3115 3114 3114 3114 3113 3112 3109 3107 3106 3102 3100 3102 3101 3098 3099 3101 3102 3103 3103 3102 3102 3104 3105 3105 3105 3103 3101 3099 3097 3094 3092 3090 3087 3085 3084 3083 3083 3083 3082 3082 3082 3081 3082 3082 3082 3083 3083 3084 3084 3085 3086 3087 3088 3090 3091 3093 3093 3094 3095 3096 3098 3099 3099 3101 3103 3104 3104 3104 3106 3110 3115 3119 3123 3125 3129 3133 3136 3138 3141 3143 3146
3118 3118 3118 3118 3117 3116 3115 3114 3113 3114 3113 3111 3110 3109 3108 3107 3107 3105 3103 3103 3104 3103 3103 3103 3103 3103 3104 3105 3105 3104 3102 3099 3096 3094 3091 3089 3087 3085 3082 3081 3080 3079 3079 3079 3079 3079 3079 3078 3079 3079 3080 3080 3081 3081 3082 3083 3084 3085 3086 3088 3089 3090 3091 3092 3093 3094 3095 3096 3098 3100 3101 3102 3102 3104 3108 3112 3115 3119 3122 3126 3130 3132 3134 3137 3140 3143
3118 3118 3118 3118 3117 3116 3115 3114 3113 3113 3113 3113 3112 3111 3111 3111 3110 3109 3108 3108 3107 3105 3103 3104 3105 3105 3104 3104 3103 3102 3100 3097 3094 3090 3088 3086 3084 3081 3079 3077 3076 3075 3075 3075 3075 3076 3076 3076 3076 3076 3077 3077 3078 3078 3079 3079 3080 3082 3083 3084 3086 3087 3088 3089 3090 3091 3092 3093 3095 3096 3097 3098 3099 3102 3106 3109 3112 3116 3120 3123 3126 3128 3130 3133 3137 3140
3118 3118 3118 3117 3117 3116 3115 3114 3113 3112 3113 3114 3113 3112 3112 3112 3111 3110 3109 3109 3107 3104 3104 3104 3105 3104 3104 3103 3102 3100 3097 3095 3091 3088 3085 3083 3081 3078 3075 3073 3071 3070 3070 3070 3071 3071 3072 3073 3073 3073 3073 3074 3074 3075 3076 3076 3077 3078 3079 3081 3082 3084 3085 3087 3088 3089 3089 3090 3092 3093 3094 3095 3098 3100 3103 3106 3109 3112 3116 3119 3121 3124 3126 3129 3134 3137
3118 3118 3118 3118 3118 3117 3115 3114 3113 3112 3113 3113 3113 3112 3111 3111 3111 3110 3108 3106 3104 3103 3104 3103 3103 3103 3103 3102 3100 3097 3095 3092 3089 3086 3084 3081 3079 3075 3073 3070 3067 3065 3064 3064 3065 3066 3068 3069 3069 3070 3070 3071 3071 3072 3072 3073 3074 3075 3076 3077 3079 3081 3082 3084 3085 3086 3087 3088 3089 3091 3092 3093 3096 3098 3101 3103 3106 3108 3111 3113 3116 3118 3120 3124 3129 3133
3118 3118 3118 3117 3118 3117 3115 3115 3115 3114 3112 3113 3114 3113 3111 3111 3111 3109 3108 3108 3106 3104 3102 3101 3100 3102 3103 3101 3099 3096 3093 3091 3088 3085 3082 3079 3076 3073 3071 3068 3064 3061 3060 3059 3060 3062 3063 3065 3065 3066 3067 3067 3068 3069 3069 3070 3071 3072 3073 3074 3075 3077 3079 3080 3082 3083 3085 3086 3087 3089 3090 3092 3094 3097 3098 3100 3101 3103 3105 3107 3110 3113 3115 3120 3125 3129
3117 3117 3117 3117 3117 3117 3116 3117 3117 3116 3114 3113 3114 3114 3113 3112 3112 3110 3109 3110 3108 3105 3102 3100 3099 3101 3103 3103 3100 3097 3094 3091 3088 3084 3081 3078 3075 3072 3070 3067 3064 3060 3058 3056 3056 3057 3059 3061 3062 3062 3063 3064 3065 3066 3066 3067 3068 3069 3070 3071 3072 3073 3075 3077 3078 3080 3082 3083 3085 3086 3088 3090 3092 3094 3096 3097 3096 3096 3099 3103 3105 3108 3111 3115 3121 3124
3118 3117 3117 3117 3116 3116 3117 3117 3116 3117 3116 3115 3115 3115 3114 3113 3111 3110 3110 3110 3109 3106 3105 3104 3102 3101 3104 3103 3100 3097 3094 3091 3088 3084 3080 3077 3074 3072 3069 3066 3063 3060 3057 3055 3054 3054 3056 3058 3059 3059 3060 3061 3062 3062 3063 3064 3065 3066 3067 3068 3069 3070 3071 3073 3075 3076 3078 3080 3081 3083 3085 3087 3089 3091 3093 3094 3092 3091 3094 3098 3099 3103 3106 3110 3116 3120
3118 3117 3117 3117 3117 3117 3117 3116 3116 3116 3115 3115 3115 3115 3114 3113 3111 3110 3108 3110 3110 3108 3108 3107 3104 3102 3103 3102 3099 3097 3094 3091 3088 3084 3080 3077 3074 3071 3068 3065 3062 3060 3057 3054 3053 3052 3053 3055 3056 3056 3056 3057 3058 3059 3060 3060 3061 3063 3064 3065 3066 3067 3068 3069 3071 3073 3074 3076 3078 3080 3082 3084 3086 3088 3090 3091 3091 3090 3091 3092 3094 3098 3103 3107 3112 3114
3117 3117 3117 3116 3116 3116 3116 3115 3115 3115 3115 3115 3115 3114 3114 3113 3112 3111 3109 3110 3110 3109 3108 3108 3104 3102 3102 3100 3098 3097 3094 3091 3087 3083 3080 3076 3074 3071 3068 3065 3062 3059 3056 3054 3052 3051 3051 3051 3052 3052 3052 3053 3054 3055 3056 3057 3058 3059 3060 3062 3063 3064 3065 3066 3068 3069 3070 3072 3074 3076 3079 3080 3082 3085 3086 3087 3088 3089 3089 3090 3092 3096 3100 3104 3107 3109
3117 3117 3116 3116 3116 3116 3116 3115 3115 3114 3115 3115 3114 3114 3114 3113 3112 3112 3112 3112 3110 3108 3108 3107 3103 3101 3101 3099 3098 3097 3094 3090 3086 3083 3079 3076 3073 3071 3067 3065 3062 3059 3056 3054 3052 3050 3049 3049 3049 3049 3049 3049 3050 3051 3052 3053 3055 3056 3057 3058 3059 3060 3062 3063 3064 3065 3067 3068 3071 3073 3075 3076 3079 3081 3082 3082 3083 3085 3086 3087 3090 3093 3097 3100 3103 3105
3117 3117 3116 3115 3115 3115 3115 3115 3115 3115 3115 3115 3114 3114 3114 3113 3112 3112 3112 3111 3109 3108 3109 3107 3102 3100 3100 3099 3098 3096 3091 3088 3085 3082 3079 3076 3072 3069 3067 3064 3061 3058 3056 3053 3050 3049 3048 3047 3046 3046 3046 3046 3046 3047 3048 3049 3051 3052 3054 3055 3056 3057 3058 3060 3061 3062 3063 3065 3067 3069 3070 3072 3074 3076 3078 3078 3079 3082 3082 3083 3086 3090 3093 3096 3099 3102
3116 3116 3116 3115 3113 3112 3113 3114 3114 3115 3115 3115 3114 3114 3114 3113 3112 3112 3111 3109 3107 3107 3107 3105 3102 3100 3099 3098 3097 3094 3090 3086 3084 3081 3079 3076 3072 3069 3066 3063 3059 3056 3054 3051 3048 3046 3045 3044 3043 3043 3043 3042 3043 3044 3045 3045 3046 3047 3050 3051 3052 3053 3054 3056 3058 3059 3060 3061 3063 3065 3066 3068 3070 3072 3075 3076 3076 3078 3079 3080 3084 3087 3089 3092 3095 3097
3116 3116 3116 3115 3114 3113 3114 3114 3114 3114 3114 3114 3114 3114 3114 3113 3111 3111 3110 3108 3107 3106 3105 3104 3103 3100 3097 3096 3095 3092 3089 3085 3082 3080 3077 3074 3071 3068 3065 3062 3058 3055 3053 3050 3047 3044 3042 3041 3041 3040 3040 3040 3040 3041 3042 3042 3041 3042 3045 3048 3049 3050 3051 3052 3054 3055 3057 3058 3059 3061 3062 3064 3066 3068 3071 3073 3074 3075 3077 3078 3081 3084 3085 3088 3091 3092
3116 3116 3115 3115 3114 3114 3114 3114 3113 3113 3113 3113 3113 3113 3113 3112 3111 3111 3110 3108 3107 3106 3102 3102 3102 3099 3097 3096 3094 3091 3088 3085 3081 3079 3075 3072 3070 3067 3065 3061 3058 3055 3051 3048 3044 3041 3038 3038 3037 3038 3037 3038 3038 3038 3039 3039 3037 3038 3041 3044 3045 3047 3047 3049 3050 3052 3053 3054 3056 3057 3059 3060 3062 3064 3067 3069 3070 3072 3074 3076 3078 3080 3082 3084 3086 3088
3115 3116 3115 3114 3113 3113 3113 3113 3112 3112 3112 3112 3112 3112 3112 3111 3110 3109 3109 3108 3107 3105 3103 3102 3101 3098 3096 3095 3093 3090 3087 3084 3081 3078 3075 3072 3069 3067 3063 3060 3056 3052 3049 3045 3041 3037 3034 3033 3033 3034 3035 3035 3035 3035 3036 3036 3035 3035 3038 3040 3042 3043 3044 3045 3047 3048 3049 3051 3052 3053 3055 3056 3058 3060 3062 3065 3066 3068 3070 3072 3074 3075 3077 3079 3082 3085
3115 3115 3114 3113 3113 3112 3112 3112 3111 3111 3111 3111 3111 3111 3110 3110 3109 3108 3107 3107 3106 3105 3103 3102 3100 3098 3096 3094 3092 3090 3087 3084 3081 3077 3074 3071 3068 3065 3062 3058 3054 3050 3046 3042 3037 3033 3030 3029 3029 3031 3032 3032 3033 3033 3034 3033 3033 3033 3035 3037 3038 3040 3040 3041 3042 3044 3045 3047 3048 3049 3051 3052 3053 3055 3057 3060 3062 3064 3066 3068 3069 3070 3071 3074 3078 3082
3114 3114 3113 3112 3112 3111 3111 3111 3111 3110 3110 3110 3110 3110 3109 3109 3108 3107 3106 3105 3104 3103 3102 3100 3098 3096 3095 3093 3091 3088 3085 3082 3079 3076 3073 3070 3067 3064 3061 3057 3053 3049 3045 3040 3035 3030 3027 3025 3026 3027 3029 3030 3031 3031 3032 3032 3031 3031 3032 3034 3035 3035 3036 3037 3038 3040 3041 3043 3044 3045 3046 3047 3049 3050 3052 3055 3058 3060 3062 3064 3065 3067 3068 3071 3074 3078
3113 3113 3112 3112 3111 3111 3110 3110 3110 3109 3109 3109 3109 3109 3108 3108 3107 3106 3105 3104 3102 3100 3099 3098 3096 3094 3093 3091 3089 3086 3083 3080 3077 3074 3071 3069 3066 3063 3060 3056 3052 3048 3044 3039 3033 3029 3025 3023 3023 3024 3026 3027 3029 3029 3030 3030 3030 3030 3030 3031 3031 3032 3032 3033 3034 3035 3037 3039 3040 3041 3042 3043 3045 3046 3048 3051 3053 3056 3058 3060 3061 3063 3065 3067 3069 3073
3112 3112 3112 3112 3111 3110 3110 3109 3109 3108 3107 3106 3107 3107 3107 3106 3106 3105 3104 3102 3100 3099 3098 3097 3095 3093 3091 3089 3086 3083 3080 3077 3075 3072 3069 3067 3064 3062 3059 3056 3051 3047 3043 3038 3033 3028 3025 3023 3022 3022 3023 3025 3026 3027 3028 3028 3028 3028 3028 3028 3029 3029 3029 3029 3029 3030 3032 3034 3036 3038 3039 3039 3040 3042 3044 3046 3049 3052 3054 3056 3057 3059 3061 3063 3065 3068
3111 3111 3111 3111 3110 3109 3109 3108 3108 3106 3104 3104 3105 3105 3105 3104 3104 3104 3102 3101 3099 3099 3098 3097 3095 3093 3090 3087 3084 3080 3078 3076 3073 3071 3069 3066 3064 3061 3058 3055 3051 3047 3043 3039 3034 3029 3026 3024 3023 3022 3022 3023 3024 3025 3025 3025 3026 3026 3026 3025 3025 3025 3025 3025 3025 3026 3027 3029 3031 3033 3035 3036 3037 3038 3040 3042 3044 3047 3050 3051 3053 3055 3057 3059 3061 3062
3110 3111 3111 3110 3109 3108 3107 3107 3106 3103 3102 3103 3104 3104 3103 3103 3103 3102 3101 3100 3098 3098 3097 3096 3094 3092 3089 3086 3082 3079 3077 3075 3072 3070 3069 3067 3064 3061 3057 3054 3050 3047 3043 3038 3034 3029 3026 3024 3023 3022 3021 3021 3021 3022 3023 3023 3024 3024 3023 3023 3022 3022 3022 3021 3022 3022 3023 3024 3025 3027 3028 3031 3032 3034 3035 3037 3039 3042 3045 3047 3049 3051 3053 3054 3056 3057
3109 3110 3110 3110 3109 3107 3106 3105 3104 3102 3101 3102 3102 3102 3102 3102 3101 3101 3100 3099 3098 3097 3096 3095 3093 3090 3087 3084 3081 3078 3076 3074 3072 3070 3068 3066 3063 3060 3056 3053 3050 3046 3042 3039 3035 3031 3027 3025 3023 3022 3020 3020 3020 3020 3021 3021 3021 3021 3021 3020 3020 3020 3020 3019 3019 3019 3020 3020 3021 3022 3023 3025 3027 3028 3030 3031 3033 3037 3040 3042 3044 3046 3048 3050 3051 3052
3108 3109 3109 3108 3108 3106 3105 3104 3102 3101 3100 3100 3100 3101 3101 3101 3100 3100 3099 3098 3096 3095 3093 3092 3090 3087 3084 3082 3079 3077 3074 3072 3072 3071 3068 3064 3061 3058 3055 3053 3050 3046 3042 3039 3036 3033 3029 3027 3024 3022 3020 3018 3018 3018 3019 3019 3019 3019 3019 3019 3019 3018 3018 3017 3017 3017 3017 3018 3019 3020 3021 3022 3023 3024 3025 3025 3026 3029 3033 3036 3039 3041 3042 3044 3045 3046
3107 3108 3108 3107 3106 3106 3105 3104 3101 3099 3098 3098 3099 3100 3099 3099 3099 3098 3097 3096 3095 3093 3091 3090 3088 3085 3082 3079 3077 3075 3072 3071 3072 3070 3066 3062 3060 3056 3053 3052 3049 3046 3042 3039 3036 3034 3031 3027 3024 3021 3019 3017 3017 3017 3017 3017 3017 3017 3017 3017 3017 3016 3016 3016 3016 3015 3015 3016 3016 3017 3019 3020 3021 3022 3023 3023 3023 3024 3024 3027 3031 3034 3037 3038 3039 3040
3106 3106 3106 3106 3106 3105 3105 3103 3101 3099 3098 3098 3098 3098 3098 3098 3097 3096 3096 3095 3094 3092 3090 3088 3086 3083 3080 3078 3076 3073 3071 3069 3069 3067 3063 3061 3058 3055 3052 3050 3047 3044 3041 3039 3036 3033 3030 3028 3025 3021 3019 3017 3016 3015 3015 3015 3015 3015 3015 3015 3014 3014 3014 3014 3014 3013 3013 3014 3014 3015 3015 3016 3018 3019 3019 3020 3022 3023 3023 3022 3023 3026 3028 3030 3032 3034
3104 3104 3105 3105 3104 3104 3103 3102 3101 3099 3098 3097 3097 3096 3096 3096 3096 3095 3094 3093 3091 3090 3088 3086 3084 3082 3079 3077 3075 3073 3071 3068 3067 3064 3062 3059 3056 3054 3051 3048 3046 3043 3040 3038 3035 3033 3031 3028 3025 3022 3018 3016 3014 3013 3013 3013 3013 3013 3013 3013 3012 3012 3012 3012 3012 3011 3011 3011 3011 3012 3013 3013 3015 3016 3016 3017 3019 3021 3022 3022 3021 3021 3021 3023 3025 3027
3103 3103 3103 3103 3102 3101 3101 3101 3099 3097 3096 3095 3095 3095 3095 3094 3094 3093 3092 3091 3089 3088 3086 3084 3082 3080 3078 3076 3074 3073 3071 3068 3066 3063 3060 3058 3055 3053 3050 3048 3045 3043 3040 3037 3035 3033 3031 3028 3025 3022 3019 3016 3014 3013 3012 3011 3011 3011 3011 3011 3010 3010 3010 3010 3010 3010 3009 3009 3009 3010 3010 3011 3012 3013 3014 3015 3016 3018 3019 3020 3020 3020 3020 3021 3021 3020
3101 3101 3101 3100 3100 3099 3099 3098 3097 3095 3093 3093 3093 3093 3093 3093 3093 3092 3091 3089 3088 3086 3085 3083 3081 3079 3077 3075 3073 3071 3070 3068 3065 3062 3059 3057 3055 3052 3049 3047 3045 3043 3040 3038 3035 3033 3030 3028 3025 3023 3020 3017 3015 3013 3011 3010 3009 3009 3009 3008 3008 3008 3008 3008 3008 3008 3008 3007 3007 3008 3008 3008 3009 3010 3011 3012 3013 3014 3016 3017 3017 3017 3019 3020 3020 3018
3099 3099 3098 3097 3097 3097 3097 3097 3096 3093 3091 3091 3091 3091 3091 3091 3090 3089 3089 3087 3086 3084 3083 3081 3079 3078 3076 3074 3072 3070 3068 3066 3063 3061 3059 3056 3054 3051 3048 3046 3043 3041 3040 3037 3035 3032 3030 3027 3025 3023 3020 3018 3015 3013 3011 3010 3008 3007 3006 3006 3006 3006 3006 3006 3005 3005 3005 3005 3005 3006 3006 3006 3006 3007 3008 3009 3010 3011 3012 3013 3012 3012 3013 3016 3018 3017
3096 3096 3095 3094 3094 3094 3094 3094 3093 3091 3089 3089 3089 3089 3089 3088 3088 3087 3086 3086 3084 3082 3081 3079 3078 3076 3075 3073 3071 3069 3067 3065 3062 3060 3058 3055 3053 3050 3048 3045 3042 3040 3038 3036 3034 3032 3029 3027 3025 3023 3020 3018 3016 3014 3011 3009 3008 3006 3005 3004 3003 3003 3003 3003 3003 3003 3003 3003 3003 3003 3003 3003 3004 3004 3005 3006 3007 3007 3008 3009 3010 3010 3010 3011 3014 3016
3092 3092 3092 3092 3091 3091 3091 3090 3089 3088 3088 3087 3087 3087 3087 3086 3086 3085 3084 3083 3082 3081 3079 3078 3076 3075 3073 3071 3069 3067 3065 3063 3061 3059 3056 3054 3051 3049 3047 3044 3042 3039 3037 3035 3033 3031 3029 3027 3025 3023 3021 3018 3016 3014 3012 3009 3007 3006 3004 3002 3000 3000 3000 3000 3000 3000 3000 3000 3000 3000 3000 3000 3001 3001 3002 3003 3003 3004 3005 3006 3007 3008 3008 3009 3011 3013
3088 3088 3088 3089 3089 3088 3087 3086 3086 3086 3086 3085 3085 3085 3085 3084 3084 3083 3082 3081 3080 3079 3077 3076 3074 3073 3072 3070 3068 3066 3064 3062 3060 3057 3055 3052 3050 3048 3046 3043 3041 3039 3036 3034 3032 3030 3029 3027 3025 3023 3021 3019 3016 3014 3012 3010 3008 3006 3004 3002 3000 2998 2997 2996 2996 2997 2997 2997 2997 2996 2997 2997 2997 2998 2999 3000 3000 3000 3001 3002 3003 3004 3005 3006 3008 3010
3086 3085 3085 3086 3086 3086 3084 3084 3084 3084 3083 3083 3083 3083 3083 3082 3081 3081 3080 3079 3079 3077 3076 3074 3072 3071 3070 3068 3066 3064 3062 3060 3058 3056 3054 3051 3049 3047 3044 3042 3040 3038 3036 3033 3031 3029 3028 3026 3024 3022 3021 3019 3016 3014 3012 3010 3008 3006 3004 3002 3000 2998 2996 2995 2994 2994 2993 2993 2993 2992 2992 2993 2993 2994 2995 2996 2996 2997 2997 2998 2999 3000 3001 3002 3004 3006
3085 3082 3083 3083 3083 3083 3082 3082 3082 3082 3081 3081 3081 3081 3080 3080 3079 3079 3078 3077 3077 3075 3074 3072 3071 3069 3068 3066 3064 3062 3060 3058 3056 3054 3052 3050 3048 3045 3043 3041 3039 3037 3034 3032 3030 3028 3026 3025 3023 3021 3019 3018 3016 3014 3012 3010 3008 3006 3004 3002 3000 2998 2996 2994 2993 2992 2991 2990 2990 2989 2988 2989 2989 2990 2991 2991 2992 2992 2993 2993 2994 2995 2996 2998 3000 3001
3081 3080 3080 3081 3080 3080 3080 3080 3081 3080 3080 3079 3079 3078 3078 3078 3077 3077 3076 3075 3074 3073 3071 3070 3069 3067 3066 3064 3062 3060 3058 3056 3054 3052 3050 3049 3047 3044 3042 3040 3037 3035 3033 3031 3029 3027 3025 3023 3022 3020 3018 3016 3014 3012 3010 3008 3006 3005 3003 3001 2999 2997 2996 2994 2993 2991 2990 2989 2987 2986 2985 2985 2985 2985 2985 2986 2986 2987 2987 2988 2989 2990 2991 2992 2994 2996
3078 3078 3078 3078 3077 3077 3078 3078 3079 3078 3078 3077 3076 3075 3075 3075 3075 3075 3074 3073 3072 3071 3069 3068 3067 3065 3064 3062 3060 3058 3056 3054 3051 3050 3048 3047 3045 3043 3041 3039 3037 3034 3032 3031 3028 3026 3024 3022 3021 3019 3017 3015 3013 3011 3009 3007 3005 3003 3002 3000 2998 2996 2995 2994 2993 2991 2989 2987 2986 2984 2982 2981 2980 2979 2979 2979 2979 2980 2981 2982 2983 2984 2985 2987 2988 2990
3075 3075 3075 3075 3075 3075 3075 3076 3075 3074 3075 3075 3074 3073 3073 3073 3073 3073 3072 3072 3070 3069 3067 3066 3065 3063 3062 3060 3058 3056 3054 3052 3050 3048 3046 3045 3043 3041 3040 3038 3036 3034 3032 3030 3028 3026 3023 3022 3020 3018 3016 3014 3012 3009 3007 3006 3004 3002 3000 2998 2996 2995 2993 2992 2991 2989 2988 2986 2984 2982 2980 2978 2977 2975 2974 2973 2972 2972 2973 2974 2975 2977 2978 2980 2982 2983